TimeEDT,TemperatureF,Dew PointF,Humidity,Sea Level PressureIn,VisibilityMPH,Wind Direction,Wind SpeedMPH,Gust SpeedMPH,PrecipitationIn,Events,Conditions,WindDirDegrees,DateUTC
12:53 AM,57.0,48.0,72,29.98,10.0,NW,9.2,-,N/A,,Clear,320,2013-07-11 04:53:00
1:53 AM,53.1,48.0,83,30.00,10.0,NW,4.6,-,N/A,,Clear,310,2013-07-11 05:53:00
2:53 AM,51.1,48.0,89,30.02,10.0,NNW,4.6,-,N/A,,Clear,330,2013-07-11 06:53:00
3:53 AM,48.9,46.9,93,30.03,10.0,Calm,Calm,-,N/A,,Clear,0,2013-07-11 07:53:00
4:53 AM,48.9,46.9,93,30.05,10.0,Calm,Calm,-,N/A,,Clear,0,2013-07-11 08:53:00
5:53 AM,48.9,46.9,93,30.06,10.0,Calm,Calm,-,N/A,,Clear,0,2013-07-11 09:53:00
6:53 AM,50.0,48.0,93,30.08,10.0,Calm,Calm,-,N/A,,Clear,0,2013-07-11 10:53:00
7:53 AM,61.0,54.0,78,30.09,10.0,Calm,Calm,-,N/A,,Clear,0,2013-07-11 11:53:00
8:53 AM,64.9,52.0,63,30.10,10.0,Calm,Calm,-,N/A,,Clear,0,2013-07-11 12:53:00
9:53 AM,66.9,53.1,61,30.11,10.0,SE,3.5,-,N/A,,Clear,140,2013-07-11 13:53:00
10:53 AM,69.1,51.1,53,30.11,10.0,Variable,3.5,-,N/A,,Clear,0,2013-07-11 14:53:00
11:53 AM,71.1,54.0,55,30.11,10.0,South,3.5,-,N/A,,Clear,180,2013-07-11 15:53:00
12:53 PM,73.9,57.0,55,30.10,10.0,South,4.6,-,N/A,,Clear,190,2013-07-11 16:53:00
1:53 PM,73.9,60.1,62,30.09,10.0,Calm,Calm,-,N/A,,Clear,0,2013-07-11 17:53:00
2:53 PM,77.0,57.0,50,30.09,10.0,Variable,6.9,-,N/A,,Clear,0,2013-07-11 18:53:00
3:53 PM,78.1,54.0,43,30.07,10.0,NW,3.5,-,N/A,,Clear,320,2013-07-11 19:53:00
4:53 PM,75.9,60.1,58,30.07,10.0,ESE,4.6,-,N/A,,Mostly Cloudy,110,2013-07-11 20:53:00
5:53 PM,75.9,57.9,54,30.06,10.0,ESE,4.6,-,N/A,,Partly Cloudy,110,2013-07-11 21:53:00
6:53 PM,73.0,57.9,59,30.05,10.0,East,6.9,-,N/A,,Clear,100,2013-07-11 22:53:00
7:53 PM,69.1,53.1,57,30.04,10.0,East,5.8,-,N/A,,Clear,90,2013-07-11 23:53:00
8:53 PM,66.0,55.0,68,30.03,10.0,ENE,4.6,-,N/A,,Clear,70,2013-07-12 00:53:00
9:53 PM,62.1,53.1,72,30.02,10.0,ENE,5.8,-,N/A,,Clear,60,2013-07-12 01:53:00
10:53 PM,59.0,52.0,78,30.02,10.0,Calm,Calm,-,N/A,,Clear,0,2013-07-12 02:53:00
11:53 PM,57.9,51.1,78,30.03,10.0,NNE,3.5,-,N/A,,Clear,30,2013-07-12 03:53:00